Regional Weather Roundup
Issued by NWS Charleston, SC

Current Version | Previous Version | Graphics & Text | Print | Product List | Glossary On
Versions: 1 2 3 4 5 6 7 8 9 10 11 12 13 14 15 16 17 18 19 20 21 22 23 24 25 26 27 28 29 30 31 32 33 34 35 36 37 38 39 40 41 42 43 44 45 46 47 48 49 50
610
ASUS42 KCHS 041412
RWRCHS

REGIONAL WEATHER ROUNDUP
NATIONAL WEATHER SERVICE CHARLESTON SC
900 AM EST SUN DEC 04 2016

NOTE: "FAIR" INDICATES FEW OR NO CLOUDS BELOW 12,000 FEET WITH NO
SIGNIFICANT WEATHER AND/OR OBSTRUCTIONS TO VISIBILITY.

NOT ALL STATIONS ARE QUALITY CONTROLLED. USE DATA WITH CAUTION...
ESPECIALLY DEWPOINT OBSERVATIONS.

SCZ027-030-031-034>040-042>050-041500-
...SOUTHEAST SOUTH CAROLINA...

CITY           SKY/WX    TMP DP  RH WIND       PRES   REMARKS
N CHARLESTON   CLOUDY    52  39  61 NE12      30.21R
WATERFRONT PRK   N/A     52  45  77 NE9       30.20F
MOUNT PLEASANT NOT AVBL
JOHNS ISLAND   CLOUDY    54  43  66 NE8G14    30.21R
PINOPOLIS        N/A     48  39  71 E12       30.14S
MONCKS CORNER  CLOUDY    48  34  57 E8        30.23R
SUMMERVILLE    PTSUNNY   52  39  62 NE7       30.23S
BEAUFORT MCAS  CLOUDY    53  40  61 E6        30.20S
BEAUFORT ARPT  CLOUDY    54  43  66 NE13      30.19S
HILTON HEAD IS CLOUDY    55  48  76 NE12      30.18R
WALTERBORO     CLOUDY    54  39  58 NE6       30.22S
ALLENDALE      CLOUDY    52  37  58 CALM      30.20S

...SOUTHERN MIDLANDS AND PEE DEE...

CITY           SKY/WX    TMP DP  RH WIND       PRES   REMARKS
GEORGETOWN     NOT AVBL
KINGSTREE      CLOUDY    46  36  66 N3        30.25S
ORANGEBURG     CLOUDY    49  35  58 NE7       30.23S
BARNWELL       NOT AVBL
AIKEN          NOT AVBL
MANNING        NOT AVBL
COLUMBIA       CLOUDY    49  40  71 E12       30.23S
SUMTER         CLOUDY    47  40  76 NE7       30.23R
FLORENCE       CLOUDY    47  42  83 NE6       30.28R
MYRTLE BEACH   CLOUDY    50  34  53 NE9       30.27F
N MYRTLE BEACH CLOUDY    48  37  65 NE8       30.26S

$$

GAZ063-065-086>088-099>101-113>116-118-119-134>141-150-041500-
...SOUTHEAST GEORGIA...

CITY           SKY/WX    TMP DP  RH WIND       PRES   REMARKS
SAVANNAH ARPT  CLOUDY    55  43  63 NE10      30.18R
HUNTER AAF     CLOUDY    56  50  79 NE10      30.15R
FORT STEWART   CLOUDY    55  46  71 NE5       30.15S
STATESBORO     CLOUDY    53  41  64 E7        30.17F
SYLVANIA       CLOUDY   N/A N/A N/A E9        30.19S
CLAXTON        CLOUDY    54  46  74 NE9       30.17S

...CSRA...CENTRAL AND FAR SOUTHEAST GEORGIA...

CITY           SKY/WX    TMP DP  RH WIND       PRES   REMARKS
THOMSON        CLOUDY    49  44  82 E7        30.24R
AUGUSTA-BUSH   CLOUDY    51  40  65 E6        30.21R
AUGUSTA-DANIEL CLOUDY    50  36  58 E9        30.21S
SWAINSBORO     CLOUDY    52  37  58 E7        30.18R
VIDALIA        CLOUDY    54  48  82 E12       30.15S
EASTMAN        CLOUDY    55  36  50 E6        30.16S
HAZLEHURST     CLOUDY    56  49  77 E10       30.12S
ALMA           CLOUDY    57  50  77 VRB7      30.13R
WAYCROSS       PTSUNNY   61  56  81 E7        30.13R
JESUP          CLOUDY    57  52  82 NE6       30.15R
BAXLEY         CLOUDY    57  52  82 E10       30.13S
BRUNSWICK      CLOUDY    66  61  82 NE3       30.14R
SAINT SIMONS   CLOUDY    67  58  72 E7        30.13R

$$

SCZ027-028-034-036>038-045-046-048>050-GAZ119-141-041500-
...LAKE AND SUPPLEMENTAL COASTAL OBSERVATIONS...

STATION/POSITION TIME  TEMP    WIND        PRES    WAVE   SWELL
                       AIR SEA DIR/SP/G            HT/PER HT/PER/DIR
                 (UTC) (F)     (DEG/KT/KT) (MB)    (FT/S) (FT/S/D)
WINYAH BAY       1245   48      10/  5     1024.0
LAKE MURRAY      1320   46      40/  1/  5 1023.7
ACE BASIN NERRS  1245   51      20/  3     1022.0
FORT PULASKI     1348   57 61   60/ 12/ 15 1021.8R
SAPELO ISLAND    1300   64      80/  8     1020.0

$$

ANZ835-935-AMZ111-154-330-350-352-354-370-450-454-472-041500-
...C-MAN AND BUOY OBSERVATIONS...

STATION/POSITION TIME  TEMP    WIND        PRES    WAVE   SWELL
                       AIR SEA DIR/SP/G            HT/PER HT/PER/DIR
                 (UTC) (F)     (DEG/KT/KT) (MB)    (FT/S) (FT/S/D)
BUOY 41004       1350   63 74   60/ 12/ 16 1021.8F   2/ 8   2/110/ 8
BUOY 41008       1350   67 65  110/ 10/ 12 1020.0R   3/ 5   2/ 70/ 5
FOLLY BEACH CMAN 1300   53      40/ 19/ 22 1022.9F
CAPERS NEARSHORE 1308   54 62   50/ 17/ 23 1022.0F
FRIPP NEARSHORE  1308   58 62   50/ 17/ 21 1021.7S


STATION/POSITION TIME  TEMP    WIND        PRES    WAVE   SWELL
                       AIR SEA DIR/SP/G            HT/PER HT/PER/DIR
                 (UTC) (F)     (DEG/KT/KT) (MB)    (FT/S) (FT/S/D)
5E ST. MARYS GA  1330      65                N/A     4/ 5
FRYING PAN BUOY  1350   60 74   30/ 12/ 16 1023.6    3/ 9   2/ 70/ 9
BUOY 41025       1350   55 76   20/ 12/ 16 1024.4R   5/ 9   5/ 60/ 9
CAPE LOOKOUT NC  1300   49      10/  8/ 10 1024.5R
BUOY 41002       1350   65 73   40/  8/ 12 1022.5R   5/ 9   5/ 30/ 9
BUOY 41010       NOT AVBL
ST AUGUSTINE FL  1400   69 67  130/ 13/ 14 1020.0R


$$




USA.gov is the U.S. government's official web portal to all federal, state and local government web resources and services.